Flag for Netherlands Weather past 2 weeks in Hilversum, Netherlands

Now
60 °F

Partly sunny.


Feels Like: 60 °F
Forecast: 55 / 59 °F
Wind: 3 mph from South

Location: De Bilt

Current Time: Sep 23, 2014 at 11:43:39 AM

Latest Report: Sep 23, 2014 at 11:00 AM


Visibility: 6 mi

Pressure: 30.17 "Hg

Humidity: 71%

Dew point: 51 °F

Location of HilversumLocation

Historic Weather in Hilversum — Graph

°F

Hilversum temperature yesterday

Maximum temperature yesterday: 62 °F (at 3:00 PM)
Minimum temperature yesterday: 48 °F (at 10:00 PM)
Average temperature yesterday: 58 °F

Past Weeks' High & Low Weather Summary

 TemperatureHumidityPressure
High77 °F (Sep 18, 3:00 PM)100% (Sep 9, 1:00 AM)30.29 "Hg (Sep 9, 1:00 AM)
Low41 °F (Sep 23, 5:00 AM)48% (Sep 22, 2:00 PM)29.81 "Hg (Sep 18, 5:00 PM)
Average61 °F83%30.07 "Hg
* Reported Sep 8 10:00 AM — Sep 23 10:00 AM, Hilversum, Weather by CustomWeather, © 2014

Note: Actual official high and low records may vary slightly from our data, if they occured in-between our weather recording intervals... More about our weather records

Advertising

Hilversum weather history for previous 24 hours

 ConditionsComfort  
Time TempWeatherWind HumidityBarometerVisibility
10:00 AM
Sep 23
55 °FFog.2 mph84%30.17 "Hg6 mi
9:00 AM49 °FFog.1 mph100%30.16 "Hg4 mi
8:00 AM45 °FFog.1 mph100%30.16 "Hg3 mi
7:00 AM43 °FPassing clouds.1 mph100%30.17 "Hg4 mi
6:00 AM41 °FPassing clouds.1 mph100%30.16 "Hg1 mi
5:00 AM41 °FClear.No wind100%30.16 "Hg0 mi
4:00 AM41 °FPassing clouds.No wind100%30.18 "Hg0 mi
3:00 AM42 °FPassing clouds.1 mph100%30.18 "Hg1 mi
2:00 AM43 °FFog.1 mph100%30.19 "Hg2 mi
1:00 AM46 °FFog.2 mph99%30.20 "Hg6 mi
12:00 AM47 °FFog.2 mph97%30.20 "Hg6 mi
11:00 PM
Sep 22
49 °FOvercast.2 mph92%30.20 "Hg11 mi
10:00 PM48 °FPassing clouds.1 mph95%30.19 "Hg8 mi
9:00 PM51 °FClear.2 mph84%30.19 "Hg11 mi
8:00 PM55 °FClear.2 mph70%30.18 "Hg3 mi
7:00 PM59 °FPassing clouds.3 mph61%30.17 "Hg16 mi
6:00 PM59 °FPassing clouds.3 mph61%30.17 "Hg14 mi
5:00 PM62 °FPassing clouds.5 mph51%30.16 "Hg17 mi
4:00 PM62 °FPassing clouds.6 mph50%30.16 "Hg17 mi
3:00 PM62 °FPassing clouds.7 mph51%30.15 "Hg17 mi
2:00 PM62 °FScattered clouds.6 mph48%30.14 "Hg16 mi
1:00 PM62 °FScattered clouds.7 mph61%30.14 "Hg12 mi
12:00 PM61 °FPartly sunny.7 mph58%30.14 "Hg12 mi
11:00 AM60 °FScattered clouds.7 mph63%30.13 "Hg12 mi
Weather by CustomWeather, © 2014

See weather overviewHow to use our weather pages